Regional Weather Roundup
Issued by NWS Charleston, SC

Current Version | Previous Version | Text Only | Print | Product List | Glossary Off
Versions: 1 2 3 4 5 6 7 8 9 10 11 12 13 14 15 16 17 18 19 20 21 22 23 24 25 26 27 28 29 30 31 32 33 34 35 36 37 38 39 40 41 42 43 44 45 46 47 48 49 50
000 ASUS42 KCHS 231027 RWRCHS REGIONAL WEATHER ROUNDUP NATIONAL WEATHER SERVICE CHARLESTON SC 600 AM EDT SAT MAY 23 2015 NOTE: "FAIR" INDICATES FEW OR NO CLOUDS BELOW 12,000 FEET WITH NO SIGNIFICANT WEATHER AND/OR OBSTRUCTIONS TO VISIBILITY. NOT ALL STATIONS ARE QUALITY CONTROLLED BY THE NATIONAL WEATHER SERVICE. USE DATA WITH CAUTION...ESPECIALLY DEWPOINT OBSERVATIONS. SCZ027-030-031-034>040-042>050-231100- ...SOUTHEAST SOUTH CAROLINA... CITY SKY/WX TMP DP RH WIND PRES REMARKS N CHARLESTON CLEAR 60 58 92 NE3 30.30R WATERFRONT PAR N/A 67 63 86 NE8 30.26R MOUNT PLEASANT FAIR 61 59 94 CALM 30.30R JOHNS ISLAND SUNNY 63 61 94 CALM 30.30R PINOPOLIS NOT AVBL MONCKS CORNER FAIR 57 55 94 CALM 30.31R SUMMERVILLE FAIR 54 54 100 CALM 30.32R BEAUFORT MCAS CLEAR 63 60 90 CALM 30.28R BEAUFORT ARPT FAIR 66 64 94 NE7 30.29R HILTON HEAD IS NOT AVBL WALTERBORO SUNNY 54 54 100 NE3 30.31R ALLENDALE FAIR 55 55 100 CALM 30.31R ...SOUTHERN MIDLANDS AND PEE DEE... CITY SKY/WX TMP DP RH WIND PRES REMARKS GEORGETOWN NOT AVBL KINGSTREE NOT AVBL ORANGEBURG CLEAR 55 53 93 CALM 30.31R BARNWELL FAIR 55 54 94 CALM 30.32R AIKEN FAIR 52 45 76 CALM 30.35R MANNING FAIR 50 43 76 CALM 30.32R COLUMBIA CLEAR 52 48 86 CALM 30.31R SUMTER NOT AVBL FLORENCE CLEAR 55 52 89 N5 30.32R MYRTLE BEACH CLEAR 61 55 82 MISG 30.33R N MYRTLE BEACH FOG 55 54 96 N3 30.32R VSB 3/4 $$ GAZ063-065-086>088-099>101-113>116-118-119-134>141-150-231100- ...SOUTHEAST GEORGIA... CITY SKY/WX TMP DP RH WIND PRES REMARKS SAVANNAH ARPT PTCLDY 61 59 93 N7 30.28R HUNTER AAF CLEAR 64 63 97 N3 30.25 FORT STEWART CLEAR 58 56 93 CALM 30.25R STATESBORO CLEAR 58 32 38 CALM 30.30R SYLVANIA SUNNY 56 56 100 CALM 30.31R CLAXTON FAIR 54 54 100 CALM 30.29R ...CSRA...CENTRAL AND FAR SOUTHEAST GEORGIA... CITY SKY/WX TMP DP RH WIND PRES REMARKS THOMSON CLEAR 51 51 100 CALM 30.36R AUGUSTA-BUSH CLEAR 50 50 100 CALM 30.31R AUGUSTA-DANIEL CLEAR 62 49 62 E6 30.31R SWAINSBORO FAIR N/A N/A N/A CALM 30.31R VIDALIA CLEAR 61 59 94 CALM 30.29R EASTMAN FOG 54 54 100 CALM 30.31R VSB 1/4 HAZLEHURST FAIR 62 62 100 CALM 30.27R ALMA CLEAR 58 57 97 CALM 30.25R FOG WAYCROSS CLEAR 60 60 100 CALM 30.26R JESUP FAIR 61 61 100 CALM 30.26R BAXLEY FAIR 61 59 94 NE3 30.27R BRUNSWICK PTCLDY 61 59 94 CALM 30.26R SAINT SIMONS NOT AVBL $$ SCZ027-028-034-036>038-045-046-048>050-GAZ119-141-231100- ...LAKE AND SUPPLEMENTAL COASTAL OBSERVATIONS... STATION/POSITION TIME TEMP WIND PRES WAVE SWELL AIR SEA DIR/SP/G HT/PER HT/PER/DIR (UTC) (F) (DEG/KT/KT) (MB) (FT/S) (FT/S/D) UPR LAKE MARION NOT AVBL WINYAH BAY 0945 62 350/ 4 1025.0R LAKE MURRAY 0900 62 40/ 2/ 3 1025.4S ACE BASIN NERRS NOT AVBL FORT PULASKI 1000 72 78 40/ 11/ 15 1025.4R SAPELO ISLAND 1000 68 50/ 5 1024.0R $$ ANZ835-935-AMZ111-154-330-350-352-354-370-450-454-472-231100- ...C-MAN AND BUOY OBSERVATIONS... STATION/POSITION TIME TEMP WIND PRES WAVE SWELL AIR SEA DIR/SP/G HT/PER HT/PER/DIR (UTC) (F) (DEG/KT/KT) (MB) (FT/S) (FT/S/D) BUOY 41004 0950 72 75 50/ 16/ 19 1024.5R 4/ 4 2/ 9 BUOY 41008 0950 74 76 60/ 17/ 19 1023.9R 4/ 5 2/ 50/ 7 FOLLY BEACH CMAN 1000 70 40/ 11/ 14 1025.6R CAPERS NEARSHORE 0908 71 70/ 16/ 19 1025.1R FRIPP NEARSHORE 0900 73 60/ 16/ 17 1023.7R STATION/POSITION TIME TEMP WIND PRES WAVE SWELL AIR SEA DIR/SP/G HT/PER HT/PER/DIR (UTC) (F) (DEG/KT/KT) (MB) (FT/S) (FT/S/D) 5E ST. MARYS GA 0921 77 N/A 3/ 5 FRYING PAN BUOY 0950 71 73 50/ 12/ 16 1026.5R 2/ 5 2/150/ 6 BUOY 41025 0950 69 77 340/ 8/ 10 1026.4R 3/ 9 3/ 60/ 9 CAPE LOOKOUT NC 1000 66 360/ 1/ 1 1026.6R BUOY 41002 0950 71 74 50/ 16/ 19 1024.4R 6/ 5 3/ 20/ 8 BUOY 41010 0920 79 81 20/ 8/ 8 1021.3R ST AUGUSTINE FL 1000 74 75 40/ 15/ 17 1023.3R $$

USA.gov is the U.S. government's official web portal to all federal, state and local government web resources and services.